Temperature
25 26 26 28 28 29 29 29 29 30 30 29 30 30 30 29 28 28 27 26 24 23 22 21 20 19 19 19 19 19 19 19 19 18 18 18 17 18 17 17 17 17 17 17
25 26 28 28 28 28 28 28 29 29 29 29 29 29 30 29 28 28 27 26 25 24 22 21 20 19 19 19 19 19 19 19 19 19 19 18 18 18 18 17 17 17 17 17
26 27 28 27 27 27 27 28 29 28 28 29 29 29 29 29 28 27 26 26 25 24 23 21 20 19 19 19 20 19 19 19 19 19 18 18 17 17 17 17 17 18 17 17
26 27 26 26 27 27 27 28 28 28 28 29 29 29 29 29 28 28 27 26 25 25 23 22 20 20 20 20 20 20 19 19 19 19 18 18 18 17 17 18 17 18 18 17
26 27 26 26 27 27 28 28 28 28 28 28 28 29 30 29 28 28 28 26 25 25 24 22 21 20 20 20 20 19 19 19 19 19 18 18 18 18 18 17 17 17 17 17
27 27 27 27 28 28 28 27 27 28 28 27 28 28 29 30 29 29 28 26 25 24 24 22 21 20 20 19 19 19 19 19 19 18 18 18 18 18 17 17 17 17 17 17
26 26 27 28 27 27 27 27 26 26 27 27 28 28 29 29 29 28 27 26 25 24 23 22 21 20 20 19 19 19 19 19 18 18 18 18 18 18 18 18 17 17 17 17
25 26 27 27 28 27 27 28 27 27 27 28 27 28 29 28 27 26 26 25 24 24 23 22 21 20 20 19 19 19 19 19 18 18 18 18 17 17 17 17 17 17 17 17
26 26 28 28 28 28 27 28 30 29 28 28 28 28 28 27 27 27 26 25 24 23 23 22 21 20 20 19 19 19 19 18 18 18 18 17 17 17 17 17 17 17 17 17
27 26 27 27 28 28 29 29 28 28 27 27 28 28 29 28 27 27 26 25 24 23 22 21 21 20 20 19 19 19 18 18 18 18 17 17 17 17 17 17 17 17 17 17
27 26 26 27 26 27 27 28 28 28 28 28 27 28 29 28 28 27 26 24 23 22 22 21 20 19 19 19 19 19 18 18 18 18 18 17 17 17 17 17 17 17 17 17
27 27 27 27 28 28 28 28 28 27 27 28 28 28 28 28 27 26 25 24 23 22 21 21 20 19 19 19 19 18 18 18 18 17 17 17 17 17 16 16 16 16 17 16
26 26 25 26 26 27 27 28 28 28 28 28 28 27 27 27 26 25 24 23 22 21 21 20 19 19 19 19 18 18 18 18 18 17 17 17 17 17 17 17 17 16 16 16
26 26 26 26 27 27 27 27 28 28 27 28 28 28 27 26 26 25 23 22 21 20 20 19 18 18 18 18 18 18 18 17 17 17 17 17 17 17 17 16 16 16 16 16
25 25 26 27 28 28 28 27 27 28 28 28 28 28 28 26 26 24 22 22 21 20 19 19 18 18 17 17 17 17 17 17 17 17 17 17 17 16 16 16 16 16 16 16
24 25 26 26 27 27 27 28 28 28 28 28 28 27 27 25 24 23 22 21 21 20 19 18 18 17 17 17 17 17 17 17 17 17 17 17 16 16 16 16 16 16 16 16
24 24 24 25 26 26 26 27 27 28 28 28 28 27 25 24 23 22 21 20 20 19 18 18 17 17 17 17 17 17 17 17 17 17 16 16 16 16 16 16 16 16 16 16
23 23 24 25 25 24 26 26 27 27 27 27 26 25 24 23 20 19 19 19 19 18 17 17 17 16 16 16 16 16 16 16 16 16 16 16 16 16 16 15 15 16 16 15
22 23 24 25 24 25 24 25 25 25 25 25 25 24 22 20 19 18 17 17 17 17 16 16 16 16 16 16 16 16 16 16 16 16 16 16 16 16 16 15 15 15 15 15
21 22 24 24 24 24 25 24 24 25 24 24 23 22 21 21 23 19 16 16 16 15 15 15 15 15 15 16 16 16 16 16 16 16 16 16 16 16 15 15 15 15 15 15
22 22 23 24 24 24 23 23 23 24 23 22 22 21 21 22 21 17 15 15 15 15 15 15 15 15 15 15 15 15 15 15 15 15 15 15 16 15 15 15 15 15 15 15
22 22 22 23 23 23 21 22 22 21 19 20 20 20 19 17 16 15 15 14 14 14 14 14 14 14 14 15 15 15 15 15 15 15 15 15 15 15 15 15 15 14 14 14
21 21 22 22 21 19 19 19 18 18 18 18 19 18 17 16 15 14 14 14 14 14 14 14 14 14 14 14 14 14 14 14 14 14 14 14 14 14 14 14 14 14 14 14
19 19 20 19 19 18 17 17 17 17 17 17 17 16 16 15 14 14 14 13 13 13 13 13 13 13 13 13 14 14 14 14 14 14 14 14 14 13 13 13 13 13 13 13
19 19 19 19 18 17 16 16 15 15 16 16 15 15 15 14 14 13 13 13 13 13 13 13 13 13 13 13 13 13 13 13 13 13 13 13 13 13 13 13 12 12 12 12
18 18 19 19 17 18 16 15 14 14 14 14 14 14 14 14 13 13 12 12 12 12 12 12 12 13 12 13 13 13 13 13 13 12 12 12 12 12 12 12 11 11 11 11
Wind_Speed
14 14 17 17 18 11 8 11 11 8 5 7 10 9 7 6 8 9 11 12 13 14 15 15 16 17 17 17 17 17 17 16 14 12 12 11 11 11 10 10 11 12 11 11
13 18 17 13 13 12 12 12 10 7 5 7 8 9 7 6 8 8 10 11 12 12 14 16 16 17 18 18 18 17 17 17 16 13 12 11 11 10 10 9 11 13 13 12
19 10 14 14 15 16 15 14 11 8 5 7 8 11 9 7 7 7 8 9 11 12 14 16 16 17 17 18 18 17 17 17 17 15 11 10 9 9 10 11 11 13 14 13
16 9 12 16 17 16 15 12 10 9 9 8 8 9 10 8 8 9 9 9 10 11 13 15 16 16 17 17 16 17 17 17 17 16 14 15 13 13 13 12 11 12 14 14
13 14 15 17 16 16 10 8 10 11 11 9 10 10 7 8 9 8 8 9 9 10 12 13 15 15 15 15 15 15 16 17 17 17 17 16 15 14 11 12 13 13 13 14
11 12 15 14 13 14 9 9 8 9 11 13 11 11 7 7 7 6 6 7 7 9 10 11 12 13 13 13 13 14 15 16 17 18 18 18 18 16 14 14 13 13 11 12
14 14 13 12 14 16 15 13 9 10 11 10 8 9 5 3 2 3 4 6 6 7 8 10 10 11 12 13 13 13 14 15 16 17 17 18 18 17 16 15 14 13 12 12
16 16 16 14 16 14 19 18 11 9 11 8 7 8 4 4 3 3 3 4 6 7 7 8 9 9 10 12 12 12 14 14 16 17 16 16 17 14 13 15 13 13 11 12
13 12 14 15 15 15 18 18 13 8 7 7 8 6 5 5 5 5 5 6 6 6 6 7 7 8 9 10 11 12 12 12 14 15 15 15 16 15 14 14 13 11 10 10
9 10 12 13 13 14 15 16 10 10 9 9 8 9 6 9 8 7 6 6 6 6 6 6 6 6 7 7 8 9 10 11 11 13 13 12 14 14 14 13 13 13 12 11
10 10 12 14 15 18 14 16 13 12 9 9 7 5 3 5 6 6 6 6 6 7 7 7 6 5 6 6 7 8 8 8 9 10 11 11 12 13 13 12 13 12 12 12
12 9 12 14 10 11 16 16 15 12 10 9 7 3 6 4 5 6 6 7 6 7 7 7 6 6 6 6 6 7 7 7 8 9 9 10 10 11 11 12 12 12 12 13
11 8 11 12 11 11 15 16 16 14 10 10 10 4 8 7 6 7 7 7 7 7 7 7 6 5 5 5 5 5 6 7 7 8 9 9 9 9 10 10 10 10 11 12
8 9 12 13 12 15 15 15 16 15 12 12 11 6 8 8 8 7 7 7 8 8 7 7 6 5 5 4 4 5 6 5 6 7 7 8 8 8 9 8 8 9 10 11
8 11 11 8 7 12 14 15 16 17 15 12 9 8 7 8 7 8 8 9 8 8 7 6 5 5 4 5 4 5 5 5 5 6 7 7 7 7 8 8 8 8 9 10
6 8 9 9 9 11 12 14 15 15 13 11 8 5 5 7 8 8 8 9 8 8 7 6 5 4 4 4 4 5 5 5 5 5 5 5 6 7 7 7 7 8 8 8
7 7 9 10 10 10 13 13 14 13 11 11 10 6 9 9 8 7 7 7 7 7 6 5 4 3 3 4 4 5 5 5 5 4 4 5 5 6 6 6 6 7 6 6
6 8 8 9 10 13 6 3 7 8 6 5 3 6 8 9 9 7 6 7 7 6 5 5 4 3 3 4 5 5 5 5 5 5 5 5 6 6 6 6 6 5 5 5
7 7 8 9 12 9 6 5 7 7 6 4 7 8 10 13 11 7 6 6 6 6 5 4 4 4 4 4 5 5 6 5 5 5 5 5 6 6 6 6 6 6 5 5
7 8 9 9 12 11 6 6 3 5 7 5 8 10 12 13 8 6 7 7 7 6 5 5 5 5 5 4 5 6 6 5 5 4 4 4 5 6 6 6 6 6 6 6
11 9 12 12 10 5 4 3 6 9 4 6 7 9 10 6 5 10 9 8 8 7 7 6 6 5 5 4 6 6 6 5 4 4 4 5 5 6 6 6 6 7 7 7
9 9 10 10 11 6 4 4 3 3 4 4 6 8 9 11 13 12 11 9 9 8 8 7 7 7 6 5 7 7 6 5 6 7 7 7 7 7 8 8 8 8 8 9
4 2 3 3 1 5 4 4 4 3 3 4 7 9 12 13 13 12 11 10 9 9 8 8 8 8 8 7 7 8 7 7 8 9 9 9 10 9 9 9 9 8 7 7
3 1 2 2 3 4 4 4 4 4 5 6 8 11 12 13 13 13 11 10 9 9 9 8 9 10 9 9 9 9 8 8 10 11 11 10 11 11 10 9 8 8 7 7
2 3 3 3 4 5 4 4 5 6 8 10 11 11 13 14 14 13 11 10 10 9 9 9 10 10 10 10 10 9 9 10 11 12 11 11 11 12 12 12 11 10 10 7
3 3 3 2 3 3 4 4 6 8 10 11 12 13 13 14 14 13 12 11 10 10 10 11 11 11 11 11 11 10 10 10 12 11 10 9 10 10 11 13 14 19 16 19
Wind_Direction
187 204 210 209 216 237 229 221 211 200 194 229 229 233 227 211 211 206 197 192 191 193 187 185 186 187 188 189 189 190 189 188 187 188 190 195 195 196 197 197 192 192 194 193
190 218 218 216 214 223 222 221 216 201 197 236 232 236 232 218 212 211 204 199 195 189 182 184 187 188 190 191 192 192 192 191 192 193 194 199 198 199 198 198 192 198 198 199
205 212 205 205 205 212 218 221 217 210 206 225 238 232 212 202 207 207 209 206 201 195 187 185 188 190 191 193 193 193 194 194 196 194 193 196 197 202 198 200 199 201 201 203
219 201 193 201 206 209 216 218 225 221 225 214 222 234 200 197 203 207 207 205 204 200 193 188 190 192 195 195 193 194 194 195 196 194 196 198 200 203 204 201 200 198 201 204
208 202 197 205 206 208 217 203 215 220 227 238 217 244 203 183 209 207 205 205 204 199 194 190 192 193 195 193 192 195 195 197 197 198 199 203 210 210 205 202 201 200 200 205
208 199 206 211 205 202 193 184 195 217 226 230 221 233 221 193 208 199 191 194 196 194 190 189 190 189 191 192 192 193 195 198 199 199 201 207 212 211 206 203 201 202 203 205
203 199 202 206 195 193 196 191 190 201 213 223 194 227 228 153 174 193 183 185 186 186 184 184 185 186 187 191 193 193 196 199 201 202 203 209 213 212 209 206 205 205 207 206
195 198 196 199 201 190 202 208 213 209 210 197 183 223 189 146 150 158 167 171 173 176 173 177 183 186 188 190 192 193 198 203 203 204 207 210 212 213 212 210 209 206 210 210
198 197 188 199 205 204 199 214 229 242 224 216 192 197 189 179 185 177 166 165 169 170 168 173 177 181 186 189 192 195 198 202 203 205 207 210 211 213 211 208 209 208 207 209
202 194 182 186 196 212 212 207 213 226 215 219 205 210 200 182 189 178 175 171 161 161 161 164 168 174 179 183 188 190 191 199 202 204 206 208 209 209 209 208 210 208 206 208
208 200 178 183 198 193 197 204 211 220 233 232 213 193 158 176 174 174 167 158 157 158 158 156 156 161 165 167 172 175 181 189 195 200 202 205 205 206 206 206 208 208 207 205
207 214 194 190 193 209 202 205 206 213 216 241 251 168 121 145 152 154 146 143 142 148 148 145 144 145 149 156 163 171 176 183 189 192 195 198 200 201 203 206 208 208 206 206
192 208 196 187 189 198 207 210 215 224 225 229 236 182 131 144 144 140 140 141 142 145 144 140 138 138 143 149 156 163 175 184 188 188 193 196 196 197 203 207 207 207 207 208
201 211 220 207 195 187 198 203 211 217 225 225 232 205 161 164 159 148 144 144 143 145 144 141 136 134 134 140 148 160 168 173 176 184 190 191 193 196 198 199 202 206 205 204
207 213 223 231 204 196 201 202 205 217 229 236 223 211 184 169 164 153 148 145 141 142 143 141 138 132 138 142 142 144 149 154 163 176 182 188 190 190 190 191 194 196 196 198
209 217 211 215 207 208 213 212 210 215 224 231 223 200 141 138 142 143 149 150 146 143 141 137 135 139 150 154 151 145 143 149 157 165 173 177 180 180 182 182 183 185 186 189
196 204 208 210 198 202 212 211 211 212 216 222 221 193 152 146 143 141 145 148 145 141 134 131 129 133 145 153 154 152 148 148 150 153 155 158 164 168 169 167 168 175 177 174
208 209 211 208 197 216 197 178 214 210 215 221 180 148 149 135 121 115 127 137 136 130 123 119 119 119 132 142 150 151 145 144 141 142 143 144 147 151 151 153 154 154 158 161
210 211 216 212 211 213 185 180 192 200 209 195 172 151 137 131 124 108 100 111 114 113 113 111 109 114 114 118 131 139 139 137 135 133 135 140 147 148 149 150 149 146 143 139
190 215 221 214 218 219 182 151 188 206 199 156 161 158 156 166 173 140 123 115 108 103 103 103 102 102 108 111 124 127 125 122 119 120 125 130 138 142 145 143 141 139 137 131
188 200 216 216 220 207 99 147 188 212 174 138 158 161 168 168 104 123 124 115 110 103 97 97 98 96 97 104 115 114 108 103 102 106 106 103 109 115 118 118 122 125 124 117
204 200 208 217 221 200 103 169 196 68 80 128 145 146 135 116 114 121 119 113 108 100 94 92 92 87 83 94 107 105 98 95 96 93 88 89 89 95 101 103 104 108 113 112
219 242 211 223 168 77 78 75 64 82 105 119 130 131 131 128 126 122 117 110 101 95 91 90 90 85 77 79 91 94 88 92 95 91 86 85 84 81 86 94 98 101 102 105
170 186 192 180 133 108 92 85 83 95 108 116 126 130 133 128 125 122 116 109 101 95 93 93 93 86 77 74 77 80 85 91 95 92 88 85 85 83 77 76 79 84 87 97
173 192 198 188 143 127 112 90 90 97 107 113 118 124 128 125 123 120 115 110 103 97 92 90 89 86 83 82 80 81 87 94 96 94 92 91 88 87 79 71 59 67 57 57
216 228 231 187 140 132 119 109 114 113 113 116 118 120 121 120 121 118 113 109 104 99 95 92 89 87 85 84 81 82 89 98 101 99 97 95 97 96 96 93 80 61 64 60
Height
1479 1478 1474 1470 1469 1466 1467 1469 1471 1471 1472 1474 1472 1471 1470 1473 1476 1477 1481 1485 1488 1492 1497 1500 1504 1507 1511 1514 1518 1521 1525 1529 1532 1536 1539 1543 1545 1549 1552 1555 1557 1559 1562 1564
1476 1472 1466 1465 1468 1471 1472 1473 1472 1472 1472 1473 1471 1470 1468 1471 1473 1475 1478 1482 1485 1490 1494 1497 1500 1503 1506 1510 1514 1518 1522 1526 1529 1532 1536 1539 1543 1546 1549 1552 1554 1557 1559 1562
1465 1461 1463 1468 1471 1474 1472 1472 1470 1472 1472 1470 1472 1471 1468 1469 1472 1475 1477 1480 1483 1486 1490 1493 1497 1500 1503 1506 1510 1514 1518 1521 1525 1529 1533 1537 1540 1542 1545 1548 1550 1553 1556 1559
1461 1459 1464 1467 1468 1469 1472 1466 1468 1472 1475 1471 1472 1474 1465 1464 1468 1470 1473 1476 1479 1482 1486 1490 1493 1496 1499 1502 1506 1509 1513 1516 1520 1524 1528 1531 1534 1537 1540 1543 1547 1550 1553 1556
1458 1457 1462 1464 1462 1465 1464 1465 1468 1469 1471 1471 1470 1472 1462 1462 1465 1466 1469 1473 1476 1479 1482 1486 1489 1492 1495 1499 1502 1505 1508 1512 1515 1519 1522 1526 1529 1533 1536 1540 1542 1545 1549 1552
1450 1454 1456 1456 1457 1462 1463 1467 1469 1468 1467 1480 1468 1471 1466 1457 1460 1461 1466 1470 1474 1477 1480 1483 1487 1490 1493 1496 1498 1501 1503 1507 1510 1513 1516 1520 1524 1527 1531 1534 1538 1541 1544 1547
1454 1453 1452 1453 1457 1460 1462 1468 1479 1482 1481 1475 1462 1468 1462 1455 1458 1461 1465 1468 1472 1475 1478 1481 1484 1487 1489 1492 1494 1497 1499 1502 1505 1508 1511 1515 1518 1522 1525 1529 1532 1536 1539 1542
1455 1455 1449 1449 1450 1456 1459 1459 1468 1478 1477 1467 1468 1467 1456 1456 1460 1463 1466 1468 1471 1474 1476 1479 1482 1484 1487 1489 1491 1493 1495 1498 1500 1503 1506 1510 1513 1517 1520 1524 1527 1530 1534 1538
1444 1446 1441 1444 1445 1447 1454 1454 1445 1455 1457 1463 1461 1459 1456 1457 1459 1462 1465 1468 1470 1472 1475 1478 1480 1482 1484 1486 1488 1490 1492 1494 1496 1499 1502 1505 1508 1511 1515 1518 1522 1526 1529 1533
1434 1443 1440 1442 1445 1446 1443 1446 1453 1458 1470 1472 1465 1461 1455 1455 1456 1459 1462 1466 1469 1472 1475 1477 1479 1481 1483 1484 1486 1487 1489 1491 1493 1496 1498 1501 1504 1507 1510 1514 1516 1520 1524 1528
1431 1440 1442 1442 1445 1445 1448 1448 1448 1450 1451 1462 1469 1461 1445 1449 1453 1457 1461 1465 1469 1471 1474 1476 1478 1480 1481 1483 1484 1486 1487 1489 1491 1493 1495 1498 1500 1503 1506 1509 1512 1515 1519 1523
1432 1434 1438 1438 1436 1434 1439 1441 1446 1456 1459 1454 1455 1457 1446 1450 1454 1457 1461 1466 1469 1471 1474 1476 1478 1479 1481 1482 1483 1485 1486 1488 1489 1491 1492 1495 1497 1500 1503 1505 1508 1511 1514 1518
1432 1437 1445 1446 1445 1441 1439 1438 1438 1442 1447 1451 1456 1457 1448 1452 1455 1459 1463 1467 1470 1472 1474 1476 1478 1479 1480 1482 1483 1484 1485 1486 1487 1489 1491 1492 1494 1497 1499 1502 1504 1507 1510 1513
1432 1434 1435 1439 1435 1433 1439 1438 1438 1441 1448 1449 1448 1447 1448 1451 1454 1459 1463 1467 1470 1472 1474 1476 1478 1479 1480 1481 1482 1483 1484 1485 1485 1487 1489 1490 1492 1494 1496 1498 1501 1504 1506 1510
1431 1432 1429 1424 1423 1425 1430 1433 1436 1439 1437 1441 1440 1441 1443 1448 1454 1459 1464 1467 1470 1472 1475 1477 1478 1479 1480 1481 1482 1483 1484 1484 1485 1486 1487 1488 1490 1492 1494 1496 1498 1501 1504 1507
1431 1431 1430 1430 1426 1427 1430 1429 1431 1434 1433 1435 1436 1441 1443 1450 1455 1460 1464 1467 1470 1472 1475 1477 1478 1479 1480 1481 1482 1483 1483 1484 1485 1486 1487 1488 1489 1490 1492 1494 1496 1499 1501 1504
1430 1432 1434 1433 1428 1431 1437 1429 1430 1431 1430 1433 1437 1440 1446 1452 1457 1461 1464 1467 1470 1473 1475 1476 1477 1478 1479 1480 1481 1482 1483 1484 1485 1486 1487 1487 1488 1490 1492 1494 1496 1498 1500 1502
1433 1433 1431 1430 1436 1448 1431 1427 1428 1430 1432 1433 1437 1442 1447 1454 1460 1464 1466 1468 1471 1473 1475 1476 1477 1478 1479 1480 1481 1482 1483 1484 1485 1486 1487 1488 1488 1490 1492 1494 1496 1498 1500 1502
1433 1433 1429 1430 1436 1435 1433 1431 1432 1434 1437 1437 1440 1445 1452 1457 1461 1466 1468 1470 1472 1473 1474 1475 1477 1477 1478 1479 1480 1481 1483 1484 1485 1486 1487 1488 1489 1490 1492 1494 1496 1498 1500 1502
1433 1432 1430 1431 1437 1440 1430 1431 1434 1436 1441 1441 1443 1447 1452 1455 1454 1464 1469 1470 1472 1473 1474 1475 1476 1477 1478 1479 1480 1481 1483 1484 1485 1486 1487 1488 1489 1490 1492 1494 1496 1499 1500 1502
1431 1432 1430 1430 1432 1428 1432 1434 1436 1442 1441 1444 1445 1448 1452 1453 1455 1464 1468 1470 1472 1473 1474 1475 1476 1476 1478 1479 1480 1481 1482 1484 1485 1486 1488 1489 1490 1491 1493 1495 1497 1499 1501 1503
1427 1427 1431 1429 1433 1436 1436 1436 1438 1442 1445 1445 1447 1450 1453 1457 1461 1464 1468 1471 1473 1474 1475 1476 1476 1477 1478 1479 1480 1481 1483 1484 1485 1487 1488 1489 1490 1492 1493 1495 1497 1499 1501 1504
1428 1428 1425 1429 1435 1440 1440 1442 1445 1446 1447 1448 1450 1453 1456 1459 1463 1466 1469 1471 1473 1475 1476 1477 1477 1478 1479 1480 1481 1482 1483 1485 1486 1488 1489 1490 1491 1493 1494 1496 1498 1500 1502 1504
1433 1434 1433 1436 1438 1442 1444 1446 1447 1448 1449 1450 1452 1455 1458 1461 1464 1467 1470 1473 1475 1476 1478 1479 1480 1480 1481 1482 1483 1484 1485 1487 1488 1489 1490 1492 1493 1495 1496 1498 1500 1502 1504 1506
1433 1434 1434 1437 1441 1443 1446 1448 1449 1450 1450 1452 1455 1458 1460 1462 1466 1469 1472 1474 1476 1478 1479 1481 1481 1482 1484 1485 1485 1486 1488 1489 1490 1491 1493 1494 1496 1497 1498 1500 1502 1504 1506 1508
1434 1435 1434 1435 1441 1442 1447 1449 1450 1452 1453 1454 1457 1460 1463 1465 1468 1471 1474 1476 1478 1480 1481 1483 1484 1485 1487 1487 1488 1489 1490 1492 1493 1494 1496 1498 1499 1501 1502 1503 1505 1508 1509 1511